Portada
METAR-TAF:

METAR-TAF

Aeroports :

Kudat, Malàisia

latitud: 06-55N, longitud: 116-50E, altitud: 3 m

Observació

L'informe es va fer fa 1 hora i 11 minuts, a les 21:00 UTC
Vent 7 kt del Oest/Sud-Oest, variant entre Sud i Oest
Temperatura 25°C
Humitat 89%
Pressió 1007 hPa
Visibilitat 10 km o més
Escasses núvols a una alçada de 1400 ft

METAR: WBKT 192100Z 24007KT 190V280 9999 FEW014 25/23 Q1007

Hora: 06:11 (22:11 UTC)


TAF: manca

Observacions i pronòstics meteorològics de més de 4000 aeroports (METAR i TAF).

Les estacions disponibles són els punts grocs i vermells al mapa.

Posi el ratolí al punt desitjat per veure el nom de l'estació.

Feu clic per veure les observacions i els pronòstics meteorològics.

Per canviar el mapa: feu clic els botons verds amb una creu de color negre per apropar; al botó verd amb un guió per allunyar la imatge; o en les fletxes verdes per a mapes adjacents.


METAR-TAF: